Location: Altoona
(40.5167°N, 78.4000°W)
Time: 08:18:44
(UTC-05:00)

Lacrosse 5 - Pass Details

Date: 21 August 2017
Orbit: 716 x 722 km, 57.0° (Epoch: 19 November)

Event Time Altitude Azimuth Distance (km) Brightness Sun altitude
Rises 20:50:00 0° 209° (SSW) 3,110 5.2 -9.4°
Reaches altitude 10° 20:52:25 10° 204° (SSW) 2,195 4.4 -9.8°
Maximum altitude 20:57:19 53° 128° (SE) 881 2.0 -10.6°
Drops below altitude 10° 21:02:16 10° 53° (NE) 2,211 4.1 -11.5°
Sets 21:04:42 0° 48° (NE) 3,136 5.0 -11.9°
